XIWANG-1 (HOPE-1)

导读 | 星芒AI

XIWANG-1(HOPE-1)是中国自主研发的一颗科学实验卫星,主要用于空间科学探测和新技术验证。该卫星搭载多种有效载荷,旨在研究宇宙射线、高能粒子及其对空间环境的影响。XIWANG-1的发射有助于提升中国在空间物理和天体物理学领域的研究能力,为未来深空探测任务提供技术支持。

基本信息
目录编号:
36122
目录名称:
XIWANG-1 (HOPE-1)
国际标识:
2009-072B
轨道中心:
EARTH
卫星名称:
XIWANG-1 (HOPE-1)
卫星全名:
--
卫星状态:
在轨 (已飞行5797 天)
发射日期:
2009-12-15 UTC
国别 :
中国 (CN)
星等 :
--
轨道信息
数据来源 国际轨道数据
星历时间: 2025-10-28T22:21:00+0800
17小时前
查看轨道信息
半长轴: 7576.523km
偏心率: 0.0007996
轨道倾角: 100.368°
近地点辐角 45.782°
升交点赤经 254.493°
平近点角 314.394°
近地点: 1192.329km
远地点: 1204.447km
周期: 109.387分钟
每日圈数: 13.164303
详细信息
使用方式:
暂无
2D轨道图
3D轨道图
轨道高度分析图
轨道倾角分析图
轨道综合分析图
查看轨道综合分析图